Regional Weather Roundup
Issued by NWS Cleveland, OH

Home | Current Version | Previous Version | Graphics & Text | Print | Product List | Glossary On
Versions: 1 2 3 4 5 6 7 8 9 10 11 12 13 14 15 16 17 18 19 20 21 22 23 24 25 26 27 28 29 30 31 32 33 34 35 36 37 38 39 40 41 42 43 44 45 46 47 48 49 50
000
ASUS41 KCLE 040800
RWRCLE
OHIO REGIONAL WEATHER ROUNDUP
NATIONAL WEATHER SERVICE WILMINGTON, OH
300 AM EST WED MAR 04 2015

NOTE: "FAIR" INDICATES FEW OR NO CLOUDS BELOW 12,000 FEET WITH NO
SIGNIFICANT WEATHER AND/OR OBSTRUCTIONS TO VISIBILITY.

OHZ001>008-015>018-024>027-034-035-043-044-040900-
   NORTHWEST OHIO

CITY           SKY/WX    TMP DP  RH WIND       PRES   REMARKS
DEFIANCE       CLOUDY    34  26  72 W5        29.86S WCI  30
FINDLAY        CLOUDY    34  31  88 W8        29.83R WCI  27
TOLEDO EXPRESS CLOUDY    33  27  78 W9        29.84R WCI  25
TOLEDO EXEC    CLOUDY    35  27  72 W9        29.85R WCI  28
LIMA           CLOUDY    35  30  82 W12       29.85R WCI  27
$$

OHZ009>014-019>023-028>033-038-089-040900-
   NORTHEAST OHIO

CITY           SKY/WX    TMP DP  RH WIND       PRES   REMARKS
CLE-HOPKINS    CLOUDY    35  30  82 W12       29.86R WCI  27
CLE-LAKEFRONT  CLOUDY    34  31  88 W12       29.83R WCI  25
CUY CO. ARPT   NOT AVBL
LORAIN-ELYRIA  CLOUDY    34  30  85 W12       29.84R WCI  25
ASHTABULA      CLOUDY    34  30  85 W10       29.79R WCI  26
AKRON-CANTON   CLOUDY    35  31  85 W12       29.82R WCI  27
WOOSTER        NOT AVBL
MANSFIELD      CLOUDY    34  31  88 W8        29.82R WCI  27
YOUNGSTOWN     DRIZZLE   36  31  82 W12       29.79R
$$

OHZ042-051>053-060>062-070>072-077>081-040900-
  SOUTHWEST OHIO

CITY           SKY/WX    TMP DP  RH WIND       PRES   REMARKS
CINC-COVINGTON LGT RAIN  38  37  97 W6        29.90R FOG
CINC-LUNKEN    LGT RAIN  37  37 100 CALM      29.90S FOG
HAMILTON       RAIN      37  36  96 NW5       29.89S FOG
DAYTON         NOT AVBL
WRIGHT-PAT AFB NOT AVBL
DAYTON GENERAL RAIN      36  35  96 NW6       29.87R FOG
WILMINGTON     LGT RAIN  36  34  92 W7        29.86F FOG
$$

OHZ036-037-039>041-045>050-054>059-063>069-073>076-082>088-040900-
  CENTRAL AND SOUTHEAST OHIO

CITY           SKY/WX    TMP DP  RH WIND       PRES   REMARKS
COLUMBUS       LGT RAIN  35  35 100 W7        29.87R FOG     WCI  29
OSU AIRPORT    LGT RAIN  35  33  92 SW5       29.86R FOG
BOLTON FIELD   NOT AVBL
RICKENBACK AFB NOT AVBL
NEWARK         LGT RAIN  36  34  92 W7        29.85S FOG
MARION         CLOUDY    34  30  85 NW8       29.85R WCI  27
LANCASTER      RAIN      37  35  92 W5        29.88R FOG
ZANESVILLE     LGT RAIN  37  34  89 W8        29.86R FOG
NEW PHILLY     RAIN      38  34  85 W5        29.85S FOG
$$



USA.gov is the U.S. government's official web portal to all federal, state and local government web resources and services.